# Land Stadt Wetter Temperatur Luftdruck Luftfeuchtigkeit Sichtweite Windgeschwindigkeit Windrichtung Ortszeit
1 ad Andorra la Vella Clouds 17 1024 67 10000 4 226 02.08.2018 14:22
2 ae Dubai Clear 32 1008 66 10000 9 280 02.08.2018 14:21
3 af Kabul Clear 15 1011 22 10000 5 204 02.08.2018 14:21
4 ar Buenos Aires Clouds 21 1022 61 10000 24 100 02.08.2018 14:22
5 ar Esquel Clear 15 1018 47 10000 11 253 02.08.2018 14:22
6 ar Ushuaia Clouds 10 996 50 10000 63 210 02.08.2018 14:22
7 at Innsbruck Clear 10 1026 67 10000 2 0 02.08.2018 14:23
8 at Wien Clear 10 1027 69 10000 2 0 02.08.2018 14:22
9 au Alice Springs Clouds 23 1013 25 10000 0 0 02.08.2018 14:21
10 au Darwin Clouds 28 1012 82 10000 4 290 02.08.2018 14:22
11 au Perth Clouds 17 1003 83 10000 11 50 02.08.2018 14:21
12 au Sydney Clouds 14 1014 79 10000 11 290 02.08.2018 14:22
13 bg Sofia Clouds 13 1024 72 10000 15 270 02.08.2018 14:21
14 bg Warna Clouds 13 1023 82 10000 4 120 02.08.2018 14:21
15 bo La Paz Clouds 18 1037 31 10000 15 120 02.08.2018 14:22
16 bo Potisi Clouds 16 1036 31 10000 11 40 02.08.2018 14:22
17 br Manaus Rain 27 1015 78 10000 9 40 02.08.2018 14:21
18 br Rio de Janeiro Clouds 22 1015 77 9000 15 180 02.08.2018 14:22
19 bs Nassau Clouds 28 1017 61 10000 22 60 02.08.2018 14:22
20 ca Montreal Clouds 10 1009 76 10000 7 340 02.08.2018 14:22
21 cd Kisangani Rain 26 1007 88 10000 3 33 02.08.2018 14:23
22 ch Andermatt Clouds 6 1025 67 10000 1 35 02.08.2018 14:23
23 ch Bern Clear 13 1025 75 10000 2 0 02.08.2018 14:23
24 ck Avarua Clouds 23 1017 88 10000 4 170 02.08.2018 14:22
25 cl Santiago Clear 25 1017 14 10000 6 190 02.08.2018 14:23
26 cn Lhasa Clouds 11 1014 65 10000 12 167 02.08.2018 14:22
27 cn Peking Rain 10 1030 30 10000 15 37 02.08.2018 14:23
28 cn Shanghai Rain 16 1015 74 10000 7 310 02.08.2018 14:21
29 de Berlin Clear 13 1014 73 10000 10 190 02.08.2018 14:21
30 de Braunschweig Clear 12 1022 68 10000 2 0 02.08.2018 14:21
31 de Bremen Clear 12 1021 80 10000 6 180 02.08.2018 14:22
32 de Dresden Clear 13 1015 70 10000 2 0 02.08.2018 14:22
33 de Emden Clouds 12 1019 83 10000 15 173 02.08.2018 14:21
34 de Flensburg Clouds 12 1020 87 10000 9 210 02.08.2018 14:21
35 de Frankfurt Clouds 10 1025 84 10000 4 0 02.08.2018 14:22
36 de Freiburg Clouds 12 1023 84 10000 5 129 02.08.2018 14:22
37 de Hamburg Clear 14 1021 71 10000 15 200 02.08.2018 14:21
38 de Hannover Clear 12 1019 72 10000 6 150 02.08.2018 14:21
39 de Helgoland Clouds 12 1019 73 10000 30 190 02.08.2018 14:22
40 de Hiddensee Clouds 13 1021 87 10000 18 255 02.08.2018 14:21
41 de Kassel Clear 11 1022 81 10000 2 0 02.08.2018 14:21
42 de Köln Clear 13 1019 78 10000 3 330 02.08.2018 14:21
43 de Magdeburg Clouds 12 1023 79 10000 6 177 02.08.2018 14:22
44 de München Clouds 13 1026 74 10000 2 58 02.08.2018 14:21
45 de Nürnberg Clear 10 1025 78 10000 11 160 02.08.2018 14:21
46 de Oberstdorf Clouds 10 1025 60 10000 5 217 02.08.2018 14:21
47 de Stuttgart Clear 11 1024 85 10000 4 0 02.08.2018 14:22
48 de Torfhaus Clouds 7 1023 83 10000 7 187 02.08.2018 14:22
49 de Trier Clouds 12 1023 71 10000 8 160 02.08.2018 14:21
50 do Santo Domingo Clouds 30 1014 71 10000 5 321 02.08.2018 14:21
51 ec San Cristobal Clouds 21 1013 88 10000 7 180 02.08.2018 14:22
52 eg Kairo Clouds 26 1017 43 10000 19 20 02.08.2018 14:22
53 es Barcelona Clouds 22 1023 80 10000 5 334 02.08.2018 14:22
54 es Las Palmas de Gran Canaria Clouds 26 1016 72 10000 3 241 02.08.2018 14:21
55 es Madrid Clear 23 1023 50 10000 6 225 02.08.2018 14:23
56 es Palma de Mallorca Clouds 22 1022 67 10000 3 296 02.08.2018 14:22
57 es Sevilla Clear 30 1017 42 10000 3 102 02.08.2018 14:22
58 es Tarifa Clouds 22 1020 79 10000 28 79 02.08.2018 14:21
59 et Addis Abeba Clouds 13 1018 54 10000 12 58 02.08.2018 14:23
60 fi Helsinki Clouds 5 1015 69 10000 18 338 02.08.2018 14:21
61 fi Rovaniemi Clear 0 1014 74 10000 15 340 02.08.2018 14:21
62 fj Suva Clouds 23 1015 100 10000 0 0 02.08.2018 14:21
63 fr Bordeaux Clear 22 1021 65 10000 11 110 02.08.2018 14:21
64 fr Nizza Clear 18 1023 72 10000 9 220 02.08.2018 14:22
65 fr Paris Clouds 17 1020 82 10000 13 210 02.08.2018 14:22
66 gb Glasgow Clouds 15 1008 91 10000 3 164 02.08.2018 14:21
67 gb London Clouds 16 1015 92 10000 19 195 02.08.2018 14:22
68 gb Manchester Clouds 16 1009 93 10000 6 309 02.08.2018 14:21
69 gl Nuuk Clear 2 1018 24 10000 7 122 02.08.2018 14:22
70 gr Athen Clouds 18 1021 68 10000 3 15 02.08.2018 14:22
71 id Jakarta Mist 25 1015 100 4000 0 0 02.08.2018 14:22
72 ie Dublin Clouds 18 1005 85 10000 8 229 02.08.2018 14:21
73 in Jagatsukh Clouds 9 1020 72 10000 16 27 02.08.2018 14:22
74 in Mumbai Haze 29 1009 70 3000 9 300 02.08.2018 14:22
75 in Nagpur Haze 26 1008 94 3000 4 260 02.08.2018 14:21
76 iq Bagdad Clear 26 1014 36 10000 15 290 02.08.2018 14:22
77 is Reykjavik Rain 11 996 71 10000 24 60 02.08.2018 14:22
78 it Mailand Clear 16 1023 61 10000 6 140 02.08.2018 14:21
79 it Palermo Clouds 19 1017 76 10000 10 58 02.08.2018 14:22
80 it Rom Clear 19 1022 56 10000 5 298 02.08.2018 14:23
81 jp Nagasaki Clouds 18 1020 59 10000 8 349 02.08.2018 14:21
82 jp Tokio Rain 13 1022 64 10000 3 23 02.08.2018 14:22
83 ke Nairobi Clouds 25 1017 41 10000 19 60 02.08.2018 14:22
84 kr Seoul Mist 10 1021 93 3500 4 170 02.08.2018 14:21
85 ma Casablanca Clear 26 1017 57 10000 18 20 02.08.2018 14:23
86 ma Marrakesch Clear 34 1016 16 10000 9 330 02.08.2018 14:23
87 mg Antananarivo Clouds 17 1022 77 10000 20 80 02.08.2018 14:21
88 mn Ulaanbaatar Clear -10 1027 79 10000 7 0 02.08.2018 14:23
89 mn Uliastai Clear -3 1031 61 10000 9 90 02.08.2018 14:23
90 mv Male Clouds 28 1012 74 10000 24 280 02.08.2018 14:23
91 mx Mexiko Stadt Clouds 17 1028 59 9656 6 80 02.08.2018 14:21
92 mx Veracruz Clouds 29 1017 45 10000 18 5 02.08.2018 14:21
93 no Hammerfest Snow 0 1016 69 10000 20 360 02.08.2018 14:22
94 no Oslo Clouds 4 1020 45 10000 2 154 02.08.2018 14:23
95 nz Wellington Clouds 14 1013 87 10000 3 55 02.08.2018 14:23
96 pe Cusco Clouds 14 1033 51 10000 4 0 02.08.2018 14:23
97 pg Port Moresby Clouds 25 1011 94 10000 9 300 02.08.2018 14:21
98 ph Manila Clouds 27 1013 83 10000 4 0 02.08.2018 14:21
99 pt Lissabon Clear 25 1020 61 10000 7 0 02.08.2018 14:22
100 qa Doha Clear 31 1010 48 10000 20 320 02.08.2018 14:23
101 ru Amderma Clouds 2 996 96 1390 19 218 02.08.2018 14:23
102 ru Anadyr Snow -1 988 93 250 56 110 02.08.2018 14:23
103 ru Jakutsk Clear -9 1010 79 10000 7 150 02.08.2018 14:22
104 ru Moskau Clouds 4 1010 78 10000 17 275 02.08.2018 14:22
105 ru Surgut Clear 7 1012 70 10000 18 210 02.08.2018 14:23
106 ru Werchojansk Clouds -18 1014 99 10000 3 115 02.08.2018 14:22
107 sa Riad Clear 31 1014 16 10000 17 56 02.08.2018 14:21
108 sb Honiara Clouds 25 1012 87 10000 5 140 02.08.2018 14:22
109 se Stockholm Clear 3 1020 75 10000 7 300 02.08.2018 14:23
110 th Bangkok Clouds 25 1014 81 10000 7 319 02.08.2018 14:21
111 tr Alanya Clear 22 1017 54 10000 22 319 02.08.2018 14:22
112 tr Ankara Clouds 14 1017 65 10000 8 349 02.08.2018 14:23
113 tr Istanbul Clouds 15 1023 77 10000 22 30 02.08.2018 14:23
114 ua Kiew Rain 7 1013 70 10000 11 250 02.08.2018 14:21
115 us Chicago Clear 20 1022 41 10000 2 211 02.08.2018 14:23
116 us Death Valley Clear 20 1008 42 10000 5 209 02.08.2018 14:22
117 us Denver Clouds 19 1010 28 10000 2 160 02.08.2018 14:21
118 us Fairbanks Clear -8 1005 85 10000 0 0 02.08.2018 14:23
119 us Honolulu Clouds 24 1016 72 10000 21 70 02.08.2018 14:22
120 us Las Vegas Clear 17 1007 42 10000 3 193 02.08.2018 14:21
121 us Los Angeles Clouds 16 1015 83 10000 22 270 02.08.2018 14:22
122 us Miami Clouds 29 1017 57 10000 10 38 02.08.2018 14:23
123 us New York Clouds 15 1009 53 10000 5 293 02.08.2018 14:22
124 us Nome Clouds -5 1009 74 10000 8 70 02.08.2018 14:23
125 us Tucson Clear 24 1015 38 10000 3 0 02.08.2018 14:21
126 uy Montevideo Clouds 18 1022 68 10000 19 180 02.08.2018 14:22
127 vn Hanoi Clouds 20 1018 90 10000 9 329 02.08.2018 14:21
128 za Kapstadt Clear 17 1026 53 10000 6 0 02.08.2018 14:22